Location: Saint-Usage
(47.1052°N, 5.2587°E)
Time: 23:13:45
(UTC+01:00)

HuskySat-1 - Visible Passes

Search period start: 05 December 2021 00:00
Search period end: 15 December 2021 00:00
Orbit: 443 x 456 km, 51.6° (Epoch: 05 December)

Date Brightness Start Highest point End Pass type
(mag) Time Alt. Az. Time Alt. Az. Time Alt. Az.
05 Dec ? 17:25:07 10° SSW 17:28:26 37° SE 17:31:46 10° ENE visible
05 Dec ? 19:02:19 10° W 19:05:35 55° NW 19:05:35 55° NW visible
06 Dec ? 18:24:24 10° WSW 18:27:57 66° NNW 18:29:16 35° NE visible
06 Dec ? 20:02:25 10° WNW 20:02:51 13° WNW 20:02:51 13° WNW visible
07 Dec ? 17:46:29 10° WSW 17:50:04 79° NNW 17:52:55 15° ENE visible
07 Dec ? 19:24:29 10° WNW 19:26:30 27° NW 19:26:30 27° NW visible
08 Dec ? 18:46:30 10° WNW 18:49:54 40° N 18:50:07 40° N visible
09 Dec ? 18:08:29 10° W 18:11:56 43° N 18:13:44 23° NE visible
09 Dec ? 19:46:25 10° WNW 19:47:18 16° WNW 19:47:18 16° WNW visible
10 Dec ? 17:30:28 10° W 17:33:57 47° NNW 17:37:20 11° ENE visible
10 Dec ? 19:08:27 10° WNW 19:10:54 33° NNW 19:10:54 33° NNW visible
11 Dec ? 18:30:28 10° WNW 18:33:51 39° N 18:34:31 35° NNE visible
11 Dec ? 20:08:03 10° WNW 20:08:06 10° WNW 20:08:06 10° WNW visible
12 Dec ? 17:52:27 10° WNW 17:55:50 38° N 17:58:10 17° ENE visible
12 Dec ? 19:30:06 10° WNW 19:31:44 25° WNW 19:31:44 25° WNW visible
13 Dec ? 18:52:07 10° WNW 18:55:26 56° N 18:55:26 56° N visible
14 Dec ? 18:14:08 10° WNW 18:17:39 51° NNE 18:19:11 28° ENE visible
14 Dec ? 19:51:41 10° WNW 19:52:47 18° W 19:52:47 18° W visible
